World > North America > United States > Minnesota

Hourly Glendale, MN Regional Weather

Feedback E-mail the Weather

Quick WX

Glendale, MN Weather Maps

°F °C°F °C
Glendale Weather Map
UTC Time: 6/26/2022, 08:13
Your Time:

Glendale, MN Regional Weather

Expires:202206260900;;208171
ASUS43 KMPX 260810
RWRMN 
WEATHER ROUNDUP FOR MINNESOTA
NATIONAL WEATHER SERVICE TWIN CITIES/CHANHASSEN MN
300 AM CDT SUN JUN 26 2022


NOTE: "FAIR" INDICATES FEW OR NO CLOUDS BELOW 12,000 FEET WITH NO
SIGNIFICANT WEATHER AND/OR OBSTRUCTIONS TO VISIBILITY. N/A MEANS
CURRENT SKY AND/OR WEATHER CONDITIONS ARE NOT AVAILABLE.


MNZ006-009>011-018-025>026-260900-
   North Central Minnesota   
  
CITY           SKY/WX    TMP DP  RH WIND       PRES   REMARKS
BAUDETTE       CLOUDY    54  46  74 MISG      29.84S                  
INTL FALLS     MOCLDY    54  47  77 W14G28    29.81R                  
WASKISH        LGT RAIN  57  52  82 W25G33    29.89S                  
BIG FORK       CLOUDY    57  52  82 W9G17     29.93R                  
LONGVILLE      RAIN      57  50  77 W10       29.95R                  
GRAND RAPIDS   CLOUDY    59  50  72 W13G23    29.92S                  
CRANE LAKE       N/A     55  50  82 SW8       29.83S                  
ORR              N/A     55  52  88 W10G17    29.82S                  
COOK           CLOUDY    57  48  72 W14G21    29.85R                  
WALKER         PTSUNNY   53  53  97 W13G20    29.97R                  
$$

SKY/WX - Weather  TMP - Temperature  DP - Dew Point  RH - Humidity
WIND - Wind Direction/Speed PRES - Barometric Pressure VSB - Visibility
WCI - Wind Chill Index E13G22 Wind - East Wind 13 mph/Gusts of 22 mph

Trending Headlines

Glendale Radar Loop



Glendale Quick Facts


National Two Day Weather Forecast


E-mail the Glendale Weather Forecast

Voice your opinion or tell us about page issues...